Wind_Speed
24 23 23 23 22 23 23 23 24 22 22 20 19 20 20 19 19 18 18 17 16 16 16 15 14 14 15 15 15 15 15 15 15 15 15 15 15 15 16 16 16 16 17 17
25 24 24 24 23 23 24 24 24 24 23 22 22 22 21 20 20 19 19 19 18 17 17 16 15 15 16 15 15 15 16 16 16 16 16 16 16 16 16 16 17 17 17 17
27 26 26 26 24 24 25 25 25 25 24 24 23 23 23 21 21 21 20 20 19 18 18 18 17 16 17 16 16 16 16 17 17 17 17 17 16 16 16 16 17 17 17 17
29 28 28 26 25 26 26 26 27 27 26 25 24 23 22 21 21 21 21 21 20 20 19 19 18 17 18 17 17 17 17 17 16 17 18 18 17 17 17 17 17 17 17 17
31 30 29 28 27 27 27 27 27 27 27 26 25 24 23 22 21 20 20 20 20 19 18 18 18 18 18 18 18 17 17 17 17 18 19 19 19 18 18 18 18 18 18 17
32 31 30 28 28 28 29 29 28 28 27 26 25 25 23 23 23 22 21 21 20 20 20 20 20 19 19 19 19 18 18 18 18 18 18 20 20 19 19 19 19 19 19 18
31 31 31 30 29 29 29 28 28 28 26 26 26 26 25 25 24 24 23 22 22 22 22 22 22 22 21 21 21 20 20 19 19 19 19 20 20 20 20 20 19 19 19 19
32 32 32 31 30 30 29 29 28 27 27 27 27 27 26 26 25 25 24 24 24 24 23 23 23 23 23 23 22 22 22 21 21 21 21 21 21 20 20 20 19 19 19 20
32 32 32 32 31 30 30 29 28 28 27 27 27 27 28 27 26 26 26 25 26 26 26 25 25 25 25 25 25 24 23 22 22 22 22 22 22 21 21 21 20 20 20 20
32 32 32 32 31 31 31 30 29 28 28 28 27 27 28 27 26 25 25 26 26 26 26 26 25 26 27 27 27 26 25 24 24 23 22 22 22 22 22 21 21 22 21 21
31 32 32 32 32 31 31 31 31 30 30 29 29 28 28 27 27 26 26 26 26 25 26 27 26 26 26 27 27 27 26 26 25 24 23 24 23 23 22 22 22 22 22 22
30 31 31 32 32 32 31 31 32 31 30 30 29 28 28 27 27 26 26 26 26 26 25 25 26 26 26 25 27 27 26 25 25 25 24 24 24 24 23 23 23 23 23 23
30 29 30 30 30 31 31 31 32 31 30 31 30 29 28 27 27 27 27 26 26 26 25 25 25 25 25 24 25 26 26 25 25 25 25 25 26 25 25 24 24 24 23 23
29 28 28 29 29 30 31 31 32 32 32 31 30 29 29 28 28 27 26 26 25 25 25 25 25 24 25 25 25 25 25 25 25 25 25 25 25 26 25 25 25 25 24 24
28 28 28 28 28 29 30 31 32 32 31 31 30 30 28 27 26 27 26 26 25 25 25 25 24 24 24 24 25 25 25 25 25 25 26 25 25 25 26 25 26 25 25 25
28 29 28 28 29 29 29 30 30 31 31 30 29 28 28 27 27 27 27 27 25 24 23 23 24 23 24 24 24 24 24 25 25 25 25 25 25 26 26 26 26 26 25 26
28 28 27 27 28 28 29 28 29 29 29 29 28 28 27 26 26 25 25 26 25 24 23 23 23 23 23 23 23 24 24 24 24 25 25 24 25 25 26 26 26 26 26 27
26 27 26 27 27 27 27 27 27 27 27 28 28 27 27 26 26 25 24 24 24 24 25 24 22 22 23 23 23 23 24 24 24 24 23 24 24 25 26 26 26 27 27 27
25 25 25 26 25 25 26 26 25 26 26 26 27 26 26 25 25 25 25 24 24 24 23 23 21 20 21 21 22 22 22 23 23 23 23 23 23 25 26 26 26 27 27 27
22 23 24 25 25 24 25 25 25 26 25 26 27 27 27 25 25 24 25 24 24 23 21 20 20 21 20 20 20 21 22 22 23 24 24 24 24 24 25 26 26 27 26 27
21 22 22 22 23 24 25 25 24 24 24 24 24 24 24 24 23 23 22 22 22 22 21 21 20 21 21 21 21 21 22 22 23 23 24 24 24 24 25 25 26 26 27 27
19 20 20 20 22 23 23 24 23 23 23 23 22 22 22 21 20 20 21 21 20 21 21 21 21 21 22 22 22 21 22 22 23 23 24 24 24 24 25 25 26 27 28 28
18 18 18 19 19 20 21 22 22 23 23 22 22 22 21 20 20 20 19 20 19 20 21 20 20 21 22 21 21 21 22 22 23 23 23 24 24 24 25 26 26 27 28 28
17 18 17 17 17 18 18 20 21 22 22 22 22 23 22 21 21 20 19 19 19 19 20 20 21 21 21 21 21 21 21 21 22 22 23 23 23 23 24 25 25 26 26 26
17 17 17 17 17 17 17 18 19 20 20 20 21 22 22 21 21 20 19 19 19 19 19 20 20 20 21 20 20 20 20 21 21 21 22 22 23 23 23 23 23 24 24 25
16 16 16 16 16 16 16 17 18 18 18 19 19 19 19 19 19 19 19 19 19 18 18 18 19 19 20 19 19 19 20 20 21 22 22 22 22 21 21 21 22 23 23 24
15 14 15 15 15 15 15 15 15 15 16 16 17 17 18 18 18 18 18 18 18 18 18 18 19 19 20 20 20 20 21 21 21 22 22 22 22 21 21 21 21 21 21 22
Wind_Direction
269 269 268 269 270 270 271 273 274 274 274 276 278 278 280 279 280 281 281 282 278 276 272 270 269 267 266 262 259 257 252 245 244 244 245 249 250 254 258 258 260 263 268 269
267 265 266 267 268 269 271 273 274 275 275 278 277 280 280 279 278 278 277 277 274 273 268 264 262 265 263 258 256 253 249 246 248 248 248 250 251 255 259 258 262 267 271 270
267 267 267 266 268 270 270 271 274 276 277 278 278 278 278 277 277 276 276 275 272 271 269 266 262 264 266 264 261 257 253 251 251 251 250 250 253 258 260 262 265 267 270 270
266 265 265 269 269 269 270 271 272 274 276 277 277 277 278 277 276 274 272 273 274 273 268 266 264 265 263 260 261 261 259 257 255 253 252 252 255 257 259 261 264 267 269 271
264 264 265 267 269 270 270 269 271 274 275 275 276 276 277 279 277 275 274 274 275 274 272 266 263 264 261 258 258 259 258 255 255 256 255 255 256 258 260 263 266 268 270 272
264 264 265 267 268 268 268 268 270 273 275 273 274 274 275 275 273 270 270 273 273 271 270 266 263 262 262 260 257 256 257 256 255 256 256 256 256 258 260 264 266 267 267 269
264 264 264 266 267 267 268 270 271 272 272 271 272 275 275 274 273 269 267 267 268 269 269 266 262 261 260 259 257 256 256 256 253 254 255 255 256 257 260 264 267 268 268 269
262 262 264 265 266 265 268 269 270 271 271 271 272 273 274 273 272 270 268 267 266 268 268 264 260 258 259 258 257 255 254 255 254 252 254 255 256 258 261 264 267 268 270 270
263 263 264 265 264 265 266 268 269 268 268 269 271 273 273 273 272 271 269 268 266 266 266 265 261 259 258 257 257 255 253 254 256 255 253 255 256 259 262 264 266 269 271 270
264 263 264 265 264 264 264 266 268 268 269 270 271 273 274 273 272 271 270 269 268 268 267 264 263 261 259 257 255 254 253 253 255 256 256 257 258 260 263 265 265 269 272 269
264 264 263 262 263 264 264 265 266 267 268 269 271 271 271 272 272 272 272 270 270 269 267 263 262 261 260 258 255 251 250 250 251 252 253 255 257 260 262 264 265 266 267 267
265 266 265 264 263 263 264 265 265 265 266 268 269 269 269 270 270 271 271 271 271 268 267 265 263 263 262 259 255 250 247 247 250 251 252 253 256 259 262 265 266 266 266 265
266 267 266 264 263 263 263 264 265 265 265 266 267 267 267 268 269 270 271 271 271 268 265 264 264 264 261 258 256 251 246 247 249 250 251 254 256 257 260 261 263 262 263 265
266 267 267 266 266 264 263 264 264 263 263 264 265 265 265 265 266 267 268 269 269 267 263 262 262 261 258 254 252 249 248 249 250 252 255 256 255 256 258 259 260 260 262 264
266 267 268 267 267 267 266 266 265 264 263 263 263 265 265 264 265 266 268 267 267 265 261 260 260 260 256 253 251 249 249 249 251 253 255 256 255 256 257 258 259 260 260 262
265 266 267 267 268 268 268 267 265 263 262 262 263 264 264 263 266 266 266 266 267 266 262 261 259 257 253 252 250 250 250 250 252 253 254 256 258 258 258 258 259 259 261 263
266 267 266 267 267 267 267 267 266 263 262 261 262 262 262 263 264 265 265 266 267 266 264 262 259 256 255 253 252 252 251 251 252 253 255 259 261 260 258 257 258 260 261 263
267 268 268 267 267 267 266 266 265 262 259 260 259 261 262 262 262 263 264 265 267 268 265 261 258 255 253 252 253 253 253 253 254 255 258 262 262 260 258 257 258 260 261 262
268 269 269 268 268 269 267 265 264 262 260 259 258 259 262 261 260 260 261 262 263 265 263 257 254 253 252 252 254 254 254 255 257 258 260 263 262 261 261 260 260 261 261 261
271 271 271 271 269 268 266 263 262 262 259 257 256 257 258 258 259 260 259 259 261 260 259 258 257 254 253 254 256 257 256 256 257 258 259 262 264 265 264 263 262 262 262 263
277 277 275 272 269 268 266 263 261 260 258 257 256 257 258 259 259 259 259 261 261 260 258 260 260 257 256 257 256 258 257 257 259 260 261 262 264 265 264 263 265 265 264 264
281 282 280 275 270 269 267 264 261 260 259 258 257 259 260 260 260 259 259 261 262 262 261 260 259 258 258 258 257 257 257 258 260 261 263 263 264 265 266 266 267 267 266 265
288 286 283 280 277 272 268 266 264 262 261 259 258 257 258 258 259 259 259 261 263 264 261 259 259 259 258 259 258 257 257 257 259 261 262 263 266 267 268 268 268 268 268 266
289 288 284 280 278 276 272 267 263 262 261 260 258 257 257 259 260 260 260 261 263 264 260 260 261 261 259 258 258 258 257 257 259 262 263 263 266 267 268 268 268 269 269 267
289 287 284 283 279 274 270 267 263 261 262 260 257 257 257 258 258 257 259 261 261 261 260 258 259 261 260 259 258 256 256 257 258 261 263 265 267 268 269 270 270 270 270 267
288 286 285 284 280 274 271 267 265 265 261 258 256 256 256 257 255 254 257 261 264 262 259 258 259 260 258 256 255 256 257 257 259 260 262 264 267 269 270 270 270 270 269 268
287 284 285 283 279 276 276 274 267 264 261 257 255 254 254 255 254 255 258 260 261 261 260 259 257 257 257 256 258 258 257 257 259 260 259 261 264 267 268 269 268 268 269 270
Height
5789 5790 5790 5790 5790 5790 5790 5789 5789 5789 5789 5790 5790 5789 5788 5787 5786 5785 5784 5783 5782 5782 5781 5781 5781 5781 5781 5781 5781 5782 5783 5784 5785 5786 5788 5789 5790 5791 5792 5793 5794 5795 5795 5795
5783 5783 5783 5783 5784 5784 5784 5783 5783 5783 5783 5784 5783 5782 5781 5780 5780 5779 5778 5778 5777 5777 5776 5776 5776 5777 5776 5776 5777 5778 5778 5779 5781 5782 5783 5785 5786 5787 5788 5789 5790 5790 5790 5790
5775 5776 5776 5776 5778 5778 5778 5777 5777 5776 5777 5777 5776 5775 5775 5774 5773 5773 5772 5772 5771 5771 5771 5771 5771 5772 5772 5773 5773 5774 5774 5775 5776 5777 5779 5780 5782 5783 5784 5784 5785 5785 5786 5785
5768 5769 5769 5772 5771 5771 5770 5770 5770 5769 5770 5770 5770 5769 5768 5767 5767 5767 5767 5766 5766 5765 5765 5766 5766 5767 5767 5768 5769 5769 5770 5770 5771 5773 5774 5776 5777 5778 5779 5779 5780 5780 5781 5780
5760 5760 5761 5763 5764 5763 5763 5763 5763 5762 5762 5762 5762 5762 5762 5761 5760 5760 5760 5760 5760 5760 5760 5760 5761 5761 5762 5763 5764 5765 5766 5766 5767 5768 5769 5771 5772 5773 5774 5774 5775 5775 5775 5775
5751 5752 5753 5756 5756 5755 5756 5755 5756 5755 5755 5756 5755 5756 5756 5755 5754 5754 5754 5754 5754 5754 5755 5755 5756 5756 5757 5758 5759 5760 5760 5761 5762 5763 5764 5765 5766 5767 5768 5769 5769 5770 5770 5770
5743 5743 5744 5747 5747 5747 5748 5749 5748 5748 5748 5748 5748 5749 5749 5748 5747 5747 5747 5747 5747 5748 5748 5749 5750 5750 5751 5752 5753 5754 5755 5756 5756 5757 5758 5759 5760 5761 5762 5763 5764 5764 5764 5765
5734 5735 5738 5738 5738 5739 5739 5739 5739 5739 5740 5740 5740 5741 5741 5740 5740 5740 5740 5740 5740 5741 5741 5742 5743 5744 5745 5746 5747 5748 5749 5750 5751 5752 5753 5753 5755 5755 5756 5757 5758 5758 5758 5759
5726 5728 5728 5728 5729 5730 5730 5731 5731 5731 5732 5732 5732 5733 5732 5732 5732 5732 5732 5732 5732 5733 5733 5734 5735 5736 5737 5738 5739 5740 5742 5743 5744 5745 5746 5748 5749 5750 5751 5751 5751 5752 5752 5753
5716 5717 5718 5719 5720 5721 5721 5722 5723 5723 5723 5723 5724 5724 5724 5724 5724 5724 5724 5724 5724 5725 5725 5726 5727 5728 5729 5730 5731 5733 5734 5736 5737 5738 5739 5741 5742 5744 5745 5745 5745 5746 5746 5746
5706 5708 5708 5709 5710 5711 5712 5713 5714 5714 5715 5715 5716 5716 5716 5716 5716 5716 5716 5716 5716 5717 5717 5718 5719 5719 5720 5721 5722 5724 5726 5728 5730 5731 5733 5734 5735 5737 5738 5738 5739 5739 5740 5740
5697 5698 5698 5700 5700 5701 5702 5703 5704 5705 5706 5707 5707 5708 5708 5708 5708 5708 5708 5708 5708 5708 5709 5710 5710 5711 5711 5712 5714 5716 5718 5720 5722 5723 5725 5727 5728 5730 5730 5731 5732 5732 5733 5733
5687 5688 5689 5690 5691 5691 5692 5694 5695 5696 5697 5698 5698 5699 5699 5699 5700 5700 5700 5700 5700 5701 5701 5702 5702 5703 5703 5704 5706 5707 5710 5712 5714 5715 5717 5719 5720 5722 5723 5724 5725 5725 5726 5726
5678 5679 5680 5681 5682 5682 5683 5684 5685 5686 5687 5688 5689 5690 5690 5691 5691 5692 5692 5692 5693 5693 5693 5694 5695 5695 5696 5697 5698 5700 5702 5704 5706 5707 5709 5711 5712 5714 5715 5716 5718 5719 5719 5720
5670 5670 5671 5672 5672 5673 5673 5674 5675 5677 5678 5679 5680 5681 5681 5682 5683 5683 5684 5684 5685 5685 5685 5685 5686 5687 5687 5689 5690 5692 5694 5696 5698 5700 5702 5703 5704 5706 5707 5709 5710 5711 5712 5712
5661 5662 5662 5663 5663 5664 5664 5665 5666 5667 5668 5670 5671 5672 5673 5673 5674 5675 5676 5676 5677 5677 5677 5678 5678 5679 5680 5682 5683 5685 5687 5689 5690 5692 5693 5695 5697 5698 5699 5701 5702 5703 5704 5704
5652 5653 5654 5654 5654 5655 5655 5656 5656 5657 5659 5661 5662 5663 5664 5665 5666 5667 5667 5668 5668 5669 5669 5670 5670 5671 5672 5674 5676 5678 5679 5681 5683 5685 5686 5687 5689 5690 5691 5692 5694 5695 5696 5696
5643 5644 5645 5645 5645 5646 5646 5647 5647 5648 5650 5652 5653 5654 5656 5657 5658 5659 5659 5660 5660 5661 5661 5662 5662 5663 5665 5666 5668 5670 5671 5673 5675 5677 5678 5679 5680 5681 5682 5684 5685 5686 5687 5688
5635 5635 5636 5636 5636 5637 5637 5638 5639 5640 5641 5643 5645 5646 5647 5648 5649 5650 5651 5652 5653 5654 5654 5655 5656 5657 5658 5659 5661 5662 5664 5665 5667 5669 5670 5671 5672 5673 5674 5675 5677 5678 5678 5679
5627 5627 5627 5627 5628 5628 5629 5629 5630 5631 5633 5634 5636 5638 5639 5640 5642 5642 5643 5644 5645 5646 5647 5647 5648 5649 5651 5652 5653 5655 5656 5658 5659 5661 5662 5663 5664 5665 5666 5667 5669 5669 5670 5670
5620 5620 5619 5619 5620 5620 5620 5621 5622 5623 5625 5626 5627 5629 5631 5632 5633 5635 5635 5637 5638 5638 5639 5640 5641 5643 5644 5645 5646 5648 5649 5650 5652 5653 5654 5656 5657 5658 5658 5659 5660 5661 5661 5662
5614 5613 5613 5612 5612 5613 5613 5613 5614 5615 5616 5617 5619 5621 5622 5624 5625 5627 5628 5630 5630 5631 5632 5633 5634 5635 5636 5637 5639 5640 5641 5643 5644 5645 5647 5648 5649 5650 5651 5651 5652 5652 5653 5653
5608 5607 5606 5605 5605 5606 5606 5606 5607 5607 5608 5610 5612 5614 5616 5617 5619 5620 5622 5623 5623 5624 5625 5626 5627 5628 5629 5630 5632 5633 5634 5636 5637 5638 5639 5640 5641 5642 5643 5643 5643 5643 5644 5644
5603 5602 5601 5600 5600 5599 5599 5599 5600 5601 5601 5603 5605 5607 5609 5611 5612 5613 5614 5616 5616 5617 5618 5619 5620 5622 5623 5624 5625 5626 5627 5629 5630 5631 5632 5633 5634 5634 5634 5635 5635 5635 5635 5635
5597 5596 5595 5595 5594 5593 5593 5593 5593 5594 5595 5596 5598 5600 5602 5604 5605 5607 5608 5609 5610 5611 5612 5613 5614 5615 5616 5617 5618 5620 5621 5622 5623 5624 5625 5626 5626 5626 5626 5626 5626 5626 5626 5626
5592 5591 5590 5589 5588 5588 5587 5587 5588 5588 5589 5590 5592 5594 5595 5597 5599 5600 5602 5603 5604 5605 5606 5607 5608 5609 5610 5611 5612 5613 5614 5615 5616 5617 5618 5619 5619 5619 5619 5619 5619 5618 5618 5618
5588 5586 5585 5584 5584 5583 5583 5582 5582 5583 5584 5585 5587 5588 5590 5591 5593 5595 5596 5597 5598 5599 5600 5601 5603 5604 5605 5605 5606 5607 5608 5608 5609 5610 5611 5611 5612 5612 5612 5611 5611 5611 5610 5610